Wetterdaten: Freitag, 04.03.2016
Datum Zeit Auen-Temp. Temp gefhlt Luftfeuchte Luftdruck Regen Wind Richtung Richtung Sonnenschein Taupunkt Windben
04.03.2016 00:00 -0,7 C -1,3 C 88 % 1006,2 hPa 0,0 mm 7,5 km/h (2 Bft) W-SW 247 0 min -2,4 C 10,1 km/h (2 Bft)
04.03.2016 00:05 -0,7 C -1,3 C 85 % 1006,2 hPa 0,0 mm 8,0 km/h (2 Bft) W 270 0 min -2,9 C 4,2 km/h (1 Bft)
04.03.2016 00:10 -0,7 C -1,2 C 85 % 1006,3 hPa 0,0 mm 7,5 km/h (2 Bft) W-NW 292 0 min -2,9 C 11,6 km/h (2 Bft)
04.03.2016 00:15 -0,7 C -1,2 C 88 % 1006,3 hPa 0,0 mm 6,3 km/h (2 Bft) NW 315 0 min -2,4 C 9,5 km/h (2 Bft)
04.03.2016 00:20 -0,7 C -1,4 C 88 % 1006,3 hPa 0,0 mm 8,3 km/h (2 Bft) W-SW 247 0 min -2,4 C 16,7 km/h (3 Bft)
04.03.2016 00:25 -0,7 C -1,6 C 88 % 1006,3 hPa 0,0 mm 9,8 km/h (2 Bft) S-SO 157 0 min -2,4 C 20,9 km/h (4 Bft)
04.03.2016 00:30 -0,7 C -1,5 C 88 % 1006,4 hPa 0,0 mm 9,5 km/h (2 Bft) W 270 0 min -2,4 C 24,7 km/h (4 Bft)
04.03.2016 00:35 -0,8 C -1,6 C 88 % 1006,4 hPa 0,0 mm 9,2 km/h (2 Bft) W-NW 292 0 min -2,5 C 11,3 km/h (2 Bft)
04.03.2016 00:40 -0,9 C -1,6 C 85 % 1006,4 hPa 0,0 mm 9,2 km/h (2 Bft) SW 225 0 min -3,1 C 18,2 km/h (3 Bft)
04.03.2016 00:45 -1,0 C -1,8 C 87 % 1006,4 hPa 0,0 mm 8,6 km/h (2 Bft) W 270 0 min -2,9 C 11,9 km/h (2 Bft)
04.03.2016 00:50 -1,2 C -2,1 C 87 % 1006,5 hPa 0,0 mm 8,9 km/h (2 Bft) W 270 0 min -3,1 C 9,8 km/h (2 Bft)
04.03.2016 00:55 -1,4 C -2,3 C 87 % 1006,5 hPa 0,0 mm 9,2 km/h (2 Bft) W 270 0 min -3,3 C 15,5 km/h (3 Bft)
04.03.2016 01:00 -1,4 C -2,3 C 87 % 1006,5 hPa 0,0 mm 9,2 km/h (2 Bft) W 270 0 min -3,3 C 5,1 km/h (1 Bft)
04.03.2016 01:05 -1,6 C -2,4 C 87 % 1006,5 hPa 0,0 mm 7,7 km/h (2 Bft) W-SW 247 0 min -3,5 C 9,8 km/h (2 Bft)
04.03.2016 01:10 -1,8 C -2,5 C 87 % 1006,6 hPa 0,0 mm 6,9 km/h (2 Bft) W 270 0 min -3,7 C 6,0 km/h (2 Bft)
04.03.2016 01:15 -1,5 C -2,2 C 87 % 1006,6 hPa 0,0 mm 6,6 km/h (2 Bft) NW 315 0 min -3,4 C 9,8 km/h (2 Bft)
04.03.2016 01:20 -1,2 C -1,8 C 87 % 1006,6 hPa 0,0 mm 6,0 km/h (2 Bft) NW 315 0 min -3,1 C 3,6 km/h (1 Bft)
04.03.2016 01:25 -1,2 C -1,6 C 87 % 1006,6 hPa 0,0 mm 4,8 km/h (1 Bft) W-SW 247 0 min -3,1 C 9,2 km/h (2 Bft)
04.03.2016 01:30 -1,1 C -1,4 C 88 % 1006,7 hPa 0,0 mm 4,5 km/h (1 Bft) W 270 0 min -2,8 C 6,6 km/h (2 Bft)
04.03.2016 01:35 -1,1 C -1,5 C 88 % 1006,7 hPa 0,0 mm 5,7 km/h (1 Bft) W 270 0 min -2,8 C 4,2 km/h (1 Bft)
04.03.2016 01:40 -1,1 C -1,4 C 88 % 1006,7 hPa 0,0 mm 4,5 km/h (1 Bft) SW 225 0 min -2,8 C 4,2 km/h (1 Bft)
04.03.2016 01:45 -1,2 C -1,4 C 88 % 1006,7 hPa 0,0 mm 3,6 km/h (1 Bft) W-SW 247 0 min -2,9 C 5,4 km/h (1 Bft)
04.03.2016 01:50 -1,2 C -1,4 C 88 % 1006,9 hPa 0,0 mm 2,4 km/h (1 Bft) W-SW 247 0 min -2,9 C 3,6 km/h (1 Bft)
04.03.2016 01:55 -1,2 C -1,4 C 88 % 1006,9 hPa 0,0 mm 3,0 km/h (1 Bft) SW 225 0 min -2,9 C 8,3 km/h (2 Bft)
04.03.2016 02:00 -1,1 C -1,4 C 88 % 1006,9 hPa 0,0 mm 4,5 km/h (1 Bft) W 270 0 min -2,8 C 6,3 km/h (2 Bft)
04.03.2016 02:05 -1,1 C -1,5 C 88 % 1006,9 hPa 0,0 mm 5,1 km/h (1 Bft) SW 225 0 min -2,8 C 8,6 km/h (2 Bft)
04.03.2016 02:10 -1,2 C -1,4 C 88 % 1006,7 hPa 0,0 mm 4,5 km/h (1 Bft) W-SW 247 0 min -2,9 C 4,5 km/h (1 Bft)
04.03.2016 02:15 -1,6 C -1,8 C 88 % 1006,7 hPa 0,0 mm 4,5 km/h (1 Bft) W-SW 247 0 min -3,3 C 5,7 km/h (1 Bft)
04.03.2016 02:20 -1,8 C -2,0 C 87 % 1006,7 hPa 0,0 mm 4,2 km/h (1 Bft) NW 315 0 min -3,7 C 0,0 km/h (0 Bft)
04.03.2016 02:25 -1,8 C -2,4 C 87 % 1006,7 hPa 0,0 mm 6,0 km/h (2 Bft) SW 225 0 min -3,7 C 8,9 km/h (2 Bft)
04.03.2016 02:30 -1,6 C -2,3 C 87 % 1006,6 hPa 0,0 mm 6,6 km/h (2 Bft) SW 225 0 min -3,5 C 13,7 km/h (3 Bft)
04.03.2016 02:35 -1,3 C -2,1 C 88 % 1006,6 hPa 0,0 mm 8,0 km/h (2 Bft) S-SO 157 0 min -3,0 C 6,6 km/h (2 Bft)
04.03.2016 02:40 -1,2 C -2,1 C 88 % 1006,6 hPa 0,0 mm 8,6 km/h (2 Bft) SW 225 0 min -2,9 C 10,1 km/h (2 Bft)
04.03.2016 02:45 -1,2 C -1,8 C 88 % 1006,6 hPa 0,0 mm 6,6 km/h (2 Bft) W 270 0 min -2,9 C 0,0 km/h (0 Bft)
04.03.2016 02:50 -1,3 C -1,7 C 88 % 1006,7 hPa 0,0 mm 5,4 km/h (1 Bft) W-SW 247 0 min -3,0 C 6,0 km/h (2 Bft)
04.03.2016 02:53 -1,3 C -1,7 C 88 % 1006,7 hPa 0,0 mm 5,4 km/h (1 Bft) W-SW 247 0 min -3,0 C 6,0 km/h (2 Bft)
04.03.2016 02:55 -1,5 C -1,7 C 87 % 1006,7 hPa 0,0 mm 4,2 km/h (1 Bft) W 270 0 min -3,4 C 3,9 km/h (1 Bft)
04.03.2016 03:00 -1,4 C -1,7 C 87 % 1006,7 hPa 0,0 mm 4,8 km/h (1 Bft) W-SW 247 0 min -3,3 C 6,6 km/h (2 Bft)
04.03.2016 03:05 -1,2 C -1,7 C 87 % 1006,7 hPa 0,0 mm 5,4 km/h (1 Bft) W-SW 247 0 min -3,1 C 10,7 km/h (2 Bft)
04.03.2016 03:10 -1,3 C -1,7 C 87 % 1006,6 hPa 0,0 mm 5,4 km/h (1 Bft) W-SW 247 0 min -3,2 C 6,6 km/h (2 Bft)
04.03.2016 03:15 -1,6 C -2,0 C 87 % 1006,6 hPa 0,0 mm 5,4 km/h (1 Bft) W-SW 247 0 min -3,5 C 5,4 km/h (1 Bft)
04.03.2016 03:20 -1,5 C -2,0 C 87 % 1006,6 hPa 0,0 mm 5,7 km/h (1 Bft) W-SW 247 0 min -3,4 C 5,1 km/h (1 Bft)
04.03.2016 03:25 -1,4 C -1,8 C 87 % 1006,6 hPa 0,0 mm 5,1 km/h (1 Bft) W-SW 247 0 min -3,3 C 0,0 km/h (0 Bft)
04.03.2016 03:30 -1,4 C -1,7 C 87 % 1006,3 hPa 0,0 mm 4,8 km/h (1 Bft) W-SW 247 0 min -3,3 C 7,2 km/h (2 Bft)
04.03.2016 03:35 -1,4 C -1,7 C 87 % 1006,3 hPa 0,0 mm 4,8 km/h (1 Bft) W-SW 247 0 min -3,3 C 6,6 km/h (2 Bft)
04.03.2016 03:40 -1,4 C -1,9 C 87 % 1006,3 hPa 0,0 mm 6,3 km/h (2 Bft) SW 225 0 min -3,3 C 9,2 km/h (2 Bft)
04.03.2016 03:45 -1,2 C -1,9 C 87 % 1006,3 hPa 0,0 mm 7,2 km/h (2 Bft) W-SW 247 0 min -3,1 C 4,8 km/h (1 Bft)
04.03.2016 03:50 -1,2 C -1,9 C 87 % 1006,5 hPa 0,0 mm 7,5 km/h (2 Bft) W-SW 247 0 min -3,1 C 4,8 km/h (1 Bft)
04.03.2016 03:55 -1,3 C -1,8 C 87 % 1006,5 hPa 0,0 mm 5,7 km/h (1 Bft) W-SW 247 0 min -3,2 C 9,5 km/h (2 Bft)
04.03.2016 04:00 -1,4 C -1,9 C 87 % 1006,5 hPa 0,0 mm 5,7 km/h (1 Bft) SW 225 0 min -3,3 C 5,7 km/h (1 Bft)
04.03.2016 04:05 -1,8 C -2,3 C 87 % 1006,5 hPa 0,0 mm 6,3 km/h (2 Bft) W-SW 247 0 min -3,7 C 6,9 km/h (2 Bft)
04.03.2016 04:10 -2,0 C -2,6 C 87 % 1006,4 hPa 0,0 mm 6,0 km/h (2 Bft) SW 225 0 min -3,9 C 7,7 km/h (2 Bft)
04.03.2016 04:15 -2,0 C -2,6 C 86 % 1006,4 hPa 0,0 mm 6,0 km/h (2 Bft) W-SW 247 0 min -4,0 C 7,2 km/h (2 Bft)
04.03.2016 04:20 -2,0 C -2,6 C 87 % 1006,4 hPa 0,0 mm 6,0 km/h (2 Bft) SW 225 0 min -3,9 C 5,4 km/h (1 Bft)
04.03.2016 04:25 -2,2 C -2,8 C 87 % 1006,4 hPa 0,0 mm 5,7 km/h (1 Bft) SW 225 0 min -4,1 C 5,4 km/h (1 Bft)
04.03.2016 04:30 -2,3 C -2,8 C 87 % 1006,6 hPa 0,0 mm 5,1 km/h (1 Bft) W-SW 247 0 min -4,2 C 6,9 km/h (2 Bft)
04.03.2016 04:35 -2,3 C -2,6 C 87 % 1006,6 hPa 0,0 mm 4,2 km/h (1 Bft) SW 225 0 min -4,2 C 5,4 km/h (1 Bft)
04.03.2016 04:40 -2,2 C -2,6 C 87 % 1006,6 hPa 0,0 mm 4,5 km/h (1 Bft) W-SW 247 0 min -4,1 C 4,2 km/h (1 Bft)
04.03.2016 04:45 -2,1 C -2,5 C 87 % 1006,6 hPa 0,0 mm 4,5 km/h (1 Bft) W-SW 247 0 min -4,0 C 6,3 km/h (2 Bft)
04.03.2016 04:50 -1,9 C -2,4 C 87 % 1006,5 hPa 0,0 mm 4,8 km/h (1 Bft) SW 225 0 min -3,8 C 6,6 km/h (2 Bft)
04.03.2016 04:55 -1,7 C -2,3 C 87 % 1006,5 hPa 0,0 mm 5,7 km/h (1 Bft) W 270 0 min -3,6 C 7,5 km/h (2 Bft)
04.03.2016 05:00 -1,6 C -2,1 C 88 % 1006,5 hPa 0,0 mm 5,7 km/h (1 Bft) W 270 0 min -3,3 C 4,2 km/h (1 Bft)
04.03.2016 05:05 -1,4 C -1,9 C 88 % 1006,5 hPa 0,0 mm 6,0 km/h (2 Bft) W-SW 247 0 min -3,1 C 5,7 km/h (1 Bft)
04.03.2016 05:10 -1,4 C -1,9 C 88 % 1006,7 hPa 0,0 mm 6,3 km/h (2 Bft) W-SW 247 0 min -3,1 C 7,2 km/h (2 Bft)
04.03.2016 05:15 -1,4 C -1,8 C 88 % 1006,7 hPa 0,0 mm 5,7 km/h (1 Bft) W-SW 247 0 min -3,1 C 4,2 km/h (1 Bft)
04.03.2016 05:20 -1,4 C -1,6 C 88 % 1006,7 hPa 0,0 mm 4,2 km/h (1 Bft) W 270 0 min -3,1 C 0,0 km/h (0 Bft)
04.03.2016 05:25 -1,4 C -1,6 C 88 % 1006,7 hPa 0,0 mm 2,1 km/h (1 Bft) W 270 0 min -3,1 C 6,9 km/h (2 Bft)
04.03.2016 05:30 -1,6 C -1,8 C 87 % 1006,2 hPa 0,0 mm 3,0 km/h (1 Bft) S-SW 202 0 min -3,5 C 6,0 km/h (2 Bft)
04.03.2016 05:35 -1,8 C -2,3 C 87 % 1006,2 hPa 0,0 mm 6,3 km/h (2 Bft) SW 225 0 min -3,7 C 5,4 km/h (1 Bft)
04.03.2016 05:40 -1,9 C -2,5 C 87 % 1006,2 hPa 0,0 mm 6,3 km/h (2 Bft) W-SW 247 0 min -3,8 C 6,3 km/h (2 Bft)
04.03.2016 05:45 -2,0 C -2,3 C 87 % 1006,2 hPa 0,0 mm 4,5 km/h (1 Bft) W-SW 247 0 min -3,9 C 6,9 km/h (2 Bft)
04.03.2016 05:50 -2,0 C -2,2 C 87 % 1006,3 hPa 0,0 mm 3,3 km/h (1 Bft) SW 225 0 min -3,9 C 5,7 km/h (1 Bft)
04.03.2016 05:53 -2,0 C -2,2 C 87 % 1006,3 hPa 0,0 mm 3,3 km/h (1 Bft) SW 225 0 min -3,9 C 5,7 km/h (1 Bft)
04.03.2016 05:55 -1,8 C -2,1 C 87 % 1006,3 hPa 0,0 mm 3,6 km/h (1 Bft) SW 225 0 min -3,7 C 4,5 km/h (1 Bft)
04.03.2016 06:00 -1,9 C -2,1 C 87 % 1006,3 hPa 0,0 mm 3,6 km/h (1 Bft) NW 315 0 min -3,8 C 4,8 km/h (1 Bft)
04.03.2016 06:05 -2,0 C -2,2 C 87 % 1006,3 hPa 0,0 mm 2,1 km/h (1 Bft) SW 225 0 min -3,9 C 0,0 km/h (0 Bft)
04.03.2016 06:10 -2,3 C -2,5 C 87 % 1006,2 hPa 0,0 mm 1,2 km/h (1 Bft) SW 225 0 min -4,2 C 5,4 km/h (1 Bft)
04.03.2016 06:15 -2,5 C -2,7 C 87 % 1006,2 hPa 0,0 mm 0,9 km/h (0 Bft) SW 225 0 min -4,4 C 0,0 km/h (0 Bft)
04.03.2016 06:20 -2,5 C -2,8 C 87 % 1006,2 hPa 0,0 mm 1,5 km/h (1 Bft) SW 225 0 min -4,4 C 4,8 km/h (1 Bft)
04.03.2016 06:25 -2,7 C -3,0 C 87 % 1006,2 hPa 0,0 mm 2,4 km/h (1 Bft) W-SW 247 0 min -4,6 C 4,8 km/h (1 Bft)
04.03.2016 06:30 -2,8 C -3,1 C 87 % 1006,1 hPa 0,0 mm 3,0 km/h (1 Bft) S 180 0 min -4,7 C 6,0 km/h (2 Bft)
04.03.2016 06:35 -2,7 C -3,0 C 87 % 1006,1 hPa 0,0 mm 3,9 km/h (1 Bft) S-SW 202 0 min -4,6 C 4,2 km/h (1 Bft)
04.03.2016 06:40 -2,9 C -3,2 C 87 % 1006,1 hPa 0,0 mm 3,6 km/h (1 Bft) SW 225 0 min -4,8 C 0,0 km/h (0 Bft)
04.03.2016 06:45 -2,9 C -3,3 C 87 % 1006,1 hPa 0,0 mm 0,6 km/h (0 Bft) S-SO 157 0 min -4,8 C 0,0 km/h (0 Bft)
04.03.2016 06:50 -2,9 C -3,3 C 87 % 1006,1 hPa 0,0 mm 0,0 km/h (0 Bft) S 180 0 min -4,8 C 0,0 km/h (0 Bft)
04.03.2016 06:55 -2,9 C -3,3 C 88 % 1006,1 hPa 0,0 mm 0,3 km/h (0 Bft) S-SO 157 0 min -4,6 C 0,0 km/h (0 Bft)
04.03.2016 07:00 -3,1 C -3,5 C 88 % 1006,1 hPa 0,0 mm 0,6 km/h (0 Bft) S 180 0 min -4,8 C 0,0 km/h (0 Bft)
04.03.2016 07:05 -3,6 C -3,9 C 88 % 1006,1 hPa 0,0 mm 0,3 km/h (0 Bft) NO 45 0 min -5,3 C 0,0 km/h (0 Bft)
04.03.2016 07:10 -3,8 C -4,1 C 87 % 1006,0 hPa 0,0 mm 0,0 km/h (0 Bft) SO 135 0 min -5,6 C 0,0 km/h (0 Bft)
04.03.2016 07:15 -3,5 C -4,0 C 88 % 1006,0 hPa 0,0 mm 0,0 km/h (0 Bft) SO 135 0 min -5,2 C 0,0 km/h (0 Bft)
04.03.2016 07:20 -3,5 C -4,0 C 88 % 1006,0 hPa 0,0 mm 0,0 km/h (0 Bft) SO 135 0 min -5,2 C 0,0 km/h (0 Bft)
04.03.2016 07:25 -3,5 C -4,0 C 89 % 1006,0 hPa 0,0 mm 0,0 km/h (0 Bft) SO 135 0 min -5,0 C 0,0 km/h (0 Bft)
04.03.2016 07:30 -3,4 C -3,9 C 89 % 1005,9 hPa 0,0 mm 0,0 km/h (0 Bft) SO 135 0 min -4,9 C 0,0 km/h (0 Bft)
04.03.2016 07:35 -3,4 C -3,9 C 89 % 1005,9 hPa 0,0 mm 0,0 km/h (0 Bft) SO 135 0 min -4,9 C 0,0 km/h (0 Bft)
04.03.2016 07:40 -3,4 C -3,8 C 83 % 1005,9 hPa 0,0 mm 0,0 km/h (0 Bft) O 90 0 min -5,9 C 0,0 km/h (0 Bft)
04.03.2016 07:45 -3,6 C -3,9 C 89 % 1005,9 hPa 0,0 mm 0,0 km/h (0 Bft) O-NO 67 0 min -5,1 C 0,0 km/h (0 Bft)
04.03.2016 07:50 -3,8 C -4,0 C 89 % 1005,4 hPa 0,0 mm 0,0 km/h (0 Bft) NO 45 0 min -5,3 C 0,0 km/h (0 Bft)
04.03.2016 07:55 -3,7 C -3,9 C 89 % 1005,4 hPa 0,0 mm 0,3 km/h (0 Bft) N-NO 22 0 min -5,2 C 0,0 km/h (0 Bft)
04.03.2016 08:00 -3,7 C -3,8 C 89 % 1005,4 hPa 0,0 mm 0,0 km/h (0 Bft) SW 225 0 min -5,2 C 0,0 km/h (0 Bft)
04.03.2016 08:05 -3,4 C -3,5 C 84 % 1005,4 hPa 0,0 mm 0,0 km/h (0 Bft) O-NO 67 0 min -5,7 C 0,0 km/h (0 Bft)
04.03.2016 08:10 -3,4 C -3,5 C 89 % 1005,4 hPa 0,0 mm 0,0 km/h (0 Bft) S-SW 202 0 min -4,9 C 0,0 km/h (0 Bft)
04.03.2016 08:15 -3,1 C -3,3 C 89 % 1005,4 hPa 0,0 mm 0,3 km/h (0 Bft) N-NO 22 0 min -4,6 C 0,0 km/h (0 Bft)
04.03.2016 08:20 -3,1 C -3,2 C 89 % 1005,4 hPa 0,0 mm 0,3 km/h (0 Bft) N-NW 337 0 min -4,6 C 0,0 km/h (0 Bft)
04.03.2016 08:25 -3,1 C -3,1 C 89 % 1005,4 hPa 0,0 mm 0,0 km/h (0 Bft) O 90 0 min -4,6 C 0,0 km/h (0 Bft)
04.03.2016 08:30 -3,1 C -3,0 C 89 % 1005,2 hPa 0,0 mm 0,0 km/h (0 Bft) NW 315 0 min -4,6 C 0,0 km/h (0 Bft)
04.03.2016 08:35 -3,0 C -3,0 C 89 % 1005,2 hPa 0,0 mm 0,0 km/h (0 Bft) W 270 0 min -4,6 C 0,0 km/h (0 Bft)
04.03.2016 08:40 -3,0 C -2,9 C 84 % 1005,2 hPa 0,0 mm 0,0 km/h (0 Bft) O-SO 112 0 min -5,3 C 0,0 km/h (0 Bft)
04.03.2016 08:45 -2,8 C -2,6 C 84 % 1005,2 hPa 0,0 mm 0,0 km/h (0 Bft) NW 315 0 min -5,1 C 0,0 km/h (0 Bft)
04.03.2016 08:50 -2,7 C -2,4 C 89 % 1005,1 hPa 0,0 mm 0,0 km/h (0 Bft) W-SW 247 0 min -4,3 C 0,0 km/h (0 Bft)
04.03.2016 08:54 -2,7 C -2,4 C 89 % 1005,1 hPa 0,0 mm 0,0 km/h (0 Bft) W-SW 247 0 min -4,3 C 0,0 km/h (0 Bft)
04.03.2016 08:55 -2,7 C -2,4 C 89 % 1005,1 hPa 0,0 mm 0,0 km/h (0 Bft) W-SW 247 0 min -4,3 C 0,0 km/h (0 Bft)
04.03.2016 09:00 -2,5 C 1,6 C 84 % 1005,1 hPa 0,0 mm 0,0 km/h (0 Bft) O-SO 112 5 min -4,8 C 0,0 km/h (0 Bft)
04.03.2016 09:05 -2,4 C 5,0 C 84 % 1005,1 hPa 0,0 mm 0,0 km/h (0 Bft) NO 45 5 min -4,7 C 0,0 km/h (0 Bft)
04.03.2016 09:10 -2,4 C 5,6 C 84 % 1004,9 hPa 0,0 mm 0,6 km/h (0 Bft) O-NO 67 5 min -4,7 C 3,9 km/h (1 Bft)
04.03.2016 09:15 -2,2 C 5,5 C 84 % 1004,9 hPa 0,0 mm 0,9 km/h (0 Bft) O-SO 112 5 min -4,5 C 4,8 km/h (1 Bft)
04.03.2016 09:20 -2,1 C 6,0 C 84 % 1004,9 hPa 0,0 mm 1,8 km/h (1 Bft) O-NO 67 5 min -4,4 C 5,4 km/h (1 Bft)
04.03.2016 09:25 -1,6 C 5,9 C 84 % 1004,9 hPa 0,0 mm 5,1 km/h (1 Bft) O 90 5 min -3,9 C 6,0 km/h (2 Bft)
04.03.2016 09:30 -1,3 C 5,8 C 84 % 1004,6 hPa 0,0 mm 6,6 km/h (2 Bft) NO 45 5 min -3,6 C 11,3 km/h (2 Bft)
04.03.2016 09:35 -0,7 C 5,5 C 84 % 1004,6 hPa 0,0 mm 6,3 km/h (2 Bft) O-SO 112 5 min -3,1 C 3,9 km/h (1 Bft)
04.03.2016 09:40 -0,5 C 5,3 C 83 % 1004,6 hPa 0,0 mm 6,0 km/h (2 Bft) O-NO 67 5 min -3,0 C 5,1 km/h (1 Bft)
04.03.2016 09:45 -0,1 C 5,2 C 83 % 1004,6 hPa 0,0 mm 6,0 km/h (2 Bft) O 90 5 min -2,6 C 11,3 km/h (2 Bft)
04.03.2016 09:50 0,2 C 5,4 C 83 % 1004,4 hPa 0,0 mm 6,3 km/h (2 Bft) NO 45 5 min -2,3 C 11,6 km/h (2 Bft)
04.03.2016 09:55 0,4 C 6,3 C 82 % 1004,4 hPa 0,0 mm 6,0 km/h (2 Bft) NO 45 5 min -2,3 C 0,0 km/h (0 Bft)
04.03.2016 10:00 0,5 C 6,9 C 82 % 1004,4 hPa 0,0 mm 5,4 km/h (1 Bft) O-NO 67 5 min -2,2 C 4,2 km/h (1 Bft)
04.03.2016 10:05 0,6 C 7,5 C 81 % 1004,4 hPa 0,0 mm 4,2 km/h (1 Bft) N-NO 22 5 min -2,3 C 6,3 km/h (2 Bft)
04.03.2016 10:10 0,8 C 7,5 C 81 % 1005,0 hPa 0,0 mm 5,1 km/h (1 Bft) O-NO 67 5 min -2,1 C 8,3 km/h (2 Bft)
04.03.2016 10:15 1,3 C 7,6 C 80 % 1005,0 hPa 0,0 mm 5,7 km/h (1 Bft) O-NO 67 5 min -1,8 C 3,6 km/h (1 Bft)
04.03.2016 10:20 1,5 C 7,5 C 79 % 1005,0 hPa 0,0 mm 7,2 km/h (2 Bft) S-SO 157 5 min -1,7 C 9,2 km/h (2 Bft)
04.03.2016 10:25 1,8 C 7,1 C 79 % 1005,0 hPa 0,0 mm 6,9 km/h (2 Bft) O-NO 67 5 min -1,4 C 11,9 km/h (2 Bft)
04.03.2016 10:30 1,9 C 7,1 C 78 % 1005,7 hPa 0,0 mm 7,2 km/h (2 Bft) NO 45 5 min -1,5 C 8,6 km/h (2 Bft)
04.03.2016 10:35 1,9 C 7,8 C 78 % 1005,7 hPa 0,0 mm 6,6 km/h (2 Bft) O-NO 67 5 min -1,5 C 6,3 km/h (2 Bft)
04.03.2016 10:40 1,8 C 8,0 C 77 % 1005,7 hPa 0,0 mm 6,0 km/h (2 Bft) O-NO 67 5 min -1,8 C 5,4 km/h (1 Bft)
04.03.2016 10:45 2,0 C 7,8 C 76 % 1005,7 hPa 0,0 mm 7,7 km/h (2 Bft) O-NO 67 5 min -1,8 C 12,8 km/h (3 Bft)
04.03.2016 10:50 2,3 C 8,3 C 76 % 1005,7 hPa 0,0 mm 6,9 km/h (2 Bft) O-NO 67 5 min -1,5 C 6,0 km/h (2 Bft)
04.03.2016 10:55 2,8 C 9,4 C 76 % 1005,7 hPa 0,0 mm 6,0 km/h (2 Bft) N-NO 22 5 min -1,0 C 12,8 km/h (3 Bft)
04.03.2016 11:00 2,7 C 9,3 C 76 % 1005,7 hPa 0,0 mm 6,3 km/h (2 Bft) NO 45 5 min -1,1 C 11,9 km/h (2 Bft)
04.03.2016 11:05 2,8 C 9,2 C 75 % 1005,7 hPa 0,0 mm 7,2 km/h (2 Bft) SO 135 5 min -1,2 C 10,7 km/h (2 Bft)
04.03.2016 11:10 2,9 C 8,7 C 75 % 1005,1 hPa 0,0 mm 8,3 km/h (2 Bft) O-NO 67 5 min -1,1 C 8,6 km/h (2 Bft)
04.03.2016 11:15 2,9 C 8,3 C 74 % 1005,1 hPa 0,0 mm 8,9 km/h (2 Bft) O-NO 67 5 min -1,3 C 7,5 km/h (2 Bft)
04.03.2016 11:20 2,9 C 8,3 C 74 % 1005,1 hPa 0,0 mm 8,9 km/h (2 Bft) O-NO 67 5 min -1,3 C 8,6 km/h (2 Bft)
04.03.2016 11:21 2,9 C 8,3 C 74 % 1005,1 hPa 0,0 mm 8,9 km/h (2 Bft) O-NO 67 1 min -1,3 C 8,6 km/h (2 Bft)
04.03.2016 11:22 2,9 C 8,3 C 74 % 1005,1 hPa 0,0 mm 8,9 km/h (2 Bft) O-NO 67 1 min -1,3 C 8,6 km/h (2 Bft)
04.03.2016 11:23 2,9 C 8,3 C 74 % 1005,1 hPa 0,0 mm 8,9 km/h (2 Bft) O-NO 67 1 min -1,3 C 8,6 km/h (2 Bft)
04.03.2016 11:24 2,9 C 8,3 C 74 % 1005,1 hPa 0,0 mm 8,9 km/h (2 Bft) O-NO 67 1 min -1,3 C 8,6 km/h (2 Bft)
04.03.2016 11:26 3,2 C 7,6 C 72 % 1005,1 hPa 0,0 mm 11,0 km/h (2 Bft) N-NO 22 0 min -1,3 C 25,9 km/h (4 Bft)
04.03.2016 11:37 3,1 C 6,6 C 71 % 1005,1 hPa 0,7 mm 12,2 km/h (2 Bft) O-NO 67 0 min -1,6 C 7,7 km/h (2 Bft)
04.03.2016 11:38 3,1 C 6,6 C 71 % 1005,1 hPa 0,0 mm 12,2 km/h (2 Bft) O-NO 67 0 min -1,6 C 7,7 km/h (2 Bft)
04.03.2016 11:39 3,1 C 6,6 C 71 % 1005,1 hPa 0,0 mm 12,2 km/h (2 Bft) O-NO 67 0 min -1,6 C 7,7 km/h (2 Bft)
04.03.2016 11:40 3,5 C 7,2 C 71 % 1005,1 hPa 0,0 mm 10,1 km/h (2 Bft) O 90 0 min -1,3 C 8,9 km/h (2 Bft)
04.03.2016 11:41 3,5 C 7,2 C 71 % 1005,1 hPa 0,0 mm 10,1 km/h (2 Bft) O 90 0 min -1,3 C 8,9 km/h (2 Bft)
04.03.2016 11:43 3,5 C 7,2 C 71 % 1005,1 hPa 0,0 mm 10,1 km/h (2 Bft) O 90 0 min -1,3 C 8,9 km/h (2 Bft)
04.03.2016 11:44 4,2 C 8,4 C 70 % 1005,1 hPa 0,7 mm 7,2 km/h (2 Bft) O 90 0 min -0,8 C 4,8 km/h (1 Bft)
04.03.2016 11:49 4,3 C 8,7 C 69 % 1005,0 hPa 0,0 mm 5,7 km/h (1 Bft) O-SO 112 0 min -0,9 C 3,9 km/h (1 Bft)
04.03.2016 11:54 4,3 C 8,7 C 69 % 1005,0 hPa 0,0 mm 5,7 km/h (1 Bft) O-SO 112 0 min -0,9 C 9,5 km/h (2 Bft)
04.03.2016 11:56 4,3 C 8,7 C 69 % 1005,0 hPa 0,0 mm 5,7 km/h (1 Bft) O-SO 112 0 min -0,9 C 9,5 km/h (2 Bft)
04.03.2016 12:00 4,2 C 8,4 C 69 % 1005,0 hPa 0,0 mm 6,9 km/h (2 Bft) O-NO 67 0 min -1,0 C 4,5 km/h (1 Bft)
04.03.2016 12:05 4,2 C 8,3 C 68 % 1005,0 hPa 0,7 mm 8,0 km/h (2 Bft) O-NO 67 0 min -1,2 C 6,3 km/h (2 Bft)
04.03.2016 12:10 4,7 C 9,1 C 69 % 1004,4 hPa 0,0 mm 6,9 km/h (2 Bft) S-SO 157 0 min -0,5 C 15,5 km/h (3 Bft)
04.03.2016 12:15 4,6 C 9,7 C 67 % 1004,4 hPa 0,0 mm 5,4 km/h (1 Bft) W-SW 247 0 min -1,0 C 6,0 km/h (2 Bft)
04.03.2016 12:20 4,6 C 10,1 C 67 % 1004,4 hPa 0,0 mm 6,6 km/h (2 Bft) O-NO 67 0 min -1,0 C 10,4 km/h (2 Bft)
04.03.2016 12:25 4,6 C 10,3 C 66 % 1004,4 hPa 0,0 mm 6,9 km/h (2 Bft) O-NO 67 5 min -1,2 C 9,5 km/h (2 Bft)
04.03.2016 12:30 4,5 C 10,0 C 66 % 1003,8 hPa 0,0 mm 7,5 km/h (2 Bft) N-NO 22 5 min -1,3 C 12,5 km/h (3 Bft)
04.03.2016 12:35 4,8 C 10,3 C 66 % 1003,8 hPa 0,0 mm 6,3 km/h (2 Bft) SO 135 0 min -1,0 C 10,4 km/h (2 Bft)
04.03.2016 12:40 4,8 C 10,1 C 64 % 1003,8 hPa 0,0 mm 6,9 km/h (2 Bft) N-NO 22 0 min -1,4 C 15,8 km/h (3 Bft)
04.03.2016 12:45 4,7 C 9,3 C 64 % 1003,8 hPa 0,0 mm 8,9 km/h (2 Bft) O-NO 67 0 min -1,5 C 6,6 km/h (2 Bft)
04.03.2016 12:50 4,7 C 9,3 C 65 % 1003,3 hPa 0,0 mm 8,3 km/h (2 Bft) O 90 0 min -1,3 C 8,6 km/h (2 Bft)
04.03.2016 12:55 4,7 C 9,2 C 64 % 1003,3 hPa 0,0 mm 7,7 km/h (2 Bft) O-NO 67 0 min -1,5 C 11,9 km/h (2 Bft)
04.03.2016 13:00 4,6 C 8,8 C 64 % 1003,3 hPa 0,0 mm 8,3 km/h (2 Bft) N-NO 22 0 min -1,6 C 5,4 km/h (1 Bft)
04.03.2016 13:05 4,7 C 9,1 C 64 % 1003,3 hPa 0,0 mm 7,5 km/h (2 Bft) O-NO 67 0 min -1,5 C 10,4 km/h (2 Bft)
04.03.2016 13:10 4,7 C 9,2 C 64 % 1002,4 hPa 0,0 mm 7,7 km/h (2 Bft) O-NO 67 0 min -1,5 C 18,8 km/h (3 Bft)
04.03.2016 13:15 4,8 C 9,0 C 64 % 1002,4 hPa 0,0 mm 8,3 km/h (2 Bft) N-NO 22 0 min -1,4 C 5,7 km/h (1 Bft)
04.03.2016 13:20 5,2 C 9,9 C 64 % 1002,4 hPa 0,0 mm 7,5 km/h (2 Bft) N-NO 22 0 min -1,0 C 5,7 km/h (1 Bft)
04.03.2016 13:25 5,5 C 10,7 C 63 % 1002,4 hPa 0,0 mm 5,4 km/h (1 Bft) NO 45 5 min -1,0 C 4,5 km/h (1 Bft)
04.03.2016 13:30 5,4 C 10,6 C 63 % 1002,0 hPa 0,0 mm 6,0 km/h (2 Bft) N-NO 22 0 min -1,1 C 8,6 km/h (2 Bft)
04.03.2016 13:35 5,4 C 10,5 C 63 % 1002,0 hPa 0,0 mm 6,0 km/h (2 Bft) O-NO 67 5 min -1,1 C 0,0 km/h (0 Bft)
04.03.2016 13:40 5,5 C 10,5 C 63 % 1002,0 hPa 0,0 mm 6,6 km/h (2 Bft) NO 45 0 min -1,0 C 11,3 km/h (2 Bft)
04.03.2016 13:45 5,5 C 10,1 C 62 % 1002,0 hPa 0,0 mm 6,9 km/h (2 Bft) NO 45 0 min -1,2 C 12,2 km/h (2 Bft)
04.03.2016 13:50 5,5 C 9,8 C 62 % 1001,6 hPa 0,0 mm 8,3 km/h (2 Bft) NO 45 0 min -1,2 C 5,4 km/h (1 Bft)
04.03.2016 13:55 5,5 C 9,5 C 62 % 1001,6 hPa 0,0 mm 8,0 km/h (2 Bft) NO 45 0 min -1,2 C 6,0 km/h (2 Bft)
04.03.2016 14:00 5,8 C 9,9 C 62 % 1001,6 hPa 0,0 mm 6,0 km/h (2 Bft) O-NO 67 0 min -0,9 C 7,5 km/h (2 Bft)
04.03.2016 14:05 5,7 C 10,4 C 61 % 1001,6 hPa 0,0 mm 3,6 km/h (1 Bft) O-NO 67 0 min -1,2 C 5,1 km/h (1 Bft)
04.03.2016 14:10 6,0 C 10,5 C 60 % 1001,3 hPa 0,0 mm 3,3 km/h (1 Bft) NO 45 0 min -1,2 C 4,5 km/h (1 Bft)
04.03.2016 14:15 6,2 C 10,8 C 60 % 1001,3 hPa 0,0 mm 3,0 km/h (1 Bft) NO 45 0 min -1,0 C 12,2 km/h (2 Bft)
04.03.2016 14:20 6,4 C 10,8 C 60 % 1001,3 hPa 0,0 mm 2,7 km/h (1 Bft) NO 45 0 min -0,8 C 0,0 km/h (0 Bft)
04.03.2016 14:25 6,7 C 10,9 C 59 % 1001,3 hPa 0,0 mm 4,2 km/h (1 Bft) NO 45 0 min -0,7 C 12,5 km/h (3 Bft)
04.03.2016 14:30 6,4 C 10,5 C 59 % 1001,2 hPa 0,0 mm 4,8 km/h (1 Bft) NO 45 0 min -1,0 C 5,7 km/h (1 Bft)
04.03.2016 14:35 6,2 C 9,9 C 59 % 1001,2 hPa 0,0 mm 6,0 km/h (2 Bft) N-NO 22 0 min -1,2 C 4,2 km/h (1 Bft)
04.03.2016 14:40 6,2 C 9,6 C 59 % 1001,2 hPa 0,0 mm 3,6 km/h (1 Bft) O-NO 67 0 min -1,2 C 4,8 km/h (1 Bft)
04.03.2016 14:45 6,0 C 9,4 C 59 % 1001,2 hPa 0,0 mm 2,7 km/h (1 Bft) N-NO 22 0 min -1,4 C 4,5 km/h (1 Bft)
04.03.2016 14:50 5,9 C 9,2 C 59 % 1001,0 hPa 0,0 mm 2,7 km/h (1 Bft) N-NW 337 0 min -1,5 C 5,1 km/h (1 Bft)
04.03.2016 14:55 5,9 C 8,9 C 59 % 1001,0 hPa 0,0 mm 2,7 km/h (1 Bft) NO 45 0 min -1,5 C 3,9 km/h (1 Bft)
04.03.2016 14:57 5,9 C 8,9 C 59 % 1001,0 hPa 0,0 mm 2,7 km/h (1 Bft) NO 45 0 min -1,5 C 3,9 km/h (1 Bft)
04.03.2016 15:00 5,9 C 8,8 C 59 % 1001,0 hPa 0,0 mm 2,1 km/h (1 Bft) O 90 0 min -1,5 C 0,0 km/h (0 Bft)
04.03.2016 15:05 5,8 C 8,8 C 59 % 1001,0 hPa 0,0 mm 0,6 km/h (0 Bft) O-SO 112 0 min -1,6 C 0,0 km/h (0 Bft)
04.03.2016 15:10 5,5 C 8,8 C 59 % 1000,6 hPa 0,0 mm 0,0 km/h (0 Bft) SO 135 0 min -1,9 C 0,0 km/h (0 Bft)
04.03.2016 15:15 5,0 C 8,9 C 59 % 1000,6 hPa 0,0 mm 0,0 km/h (0 Bft) O-NO 67 0 min -2,3 C 0,0 km/h (0 Bft)
04.03.2016 15:20 4,8 C 8,8 C 59 % 1000,6 hPa 0,0 mm 0,0 km/h (0 Bft) O-SO 112 0 min -2,5 C 0,0 km/h (0 Bft)
04.03.2016 15:25 4,5 C 8,2 C 60 % 1000,6 hPa 0,0 mm 0,6 km/h (0 Bft) S 180 0 min -2,6 C 0,0 km/h (0 Bft)
04.03.2016 15:30 4,4 C 8,0 C 60 % 1000,4 hPa 0,0 mm 0,6 km/h (0 Bft) O 90 0 min -2,7 C 5,1 km/h (1 Bft)
04.03.2016 15:35 4,2 C 7,4 C 62 % 1000,4 hPa 0,0 mm 0,9 km/h (0 Bft) O 90 0 min -2,4 C 3,3 km/h (1 Bft)
04.03.2016 15:40 4,2 C 7,2 C 62 % 1000,4 hPa 0,0 mm 1,2 km/h (1 Bft) O-SO 112 0 min -2,4 C 0,0 km/h (0 Bft)
04.03.2016 15:45 4,2 C 7,0 C 63 % 1000,4 hPa 0,0 mm 1,5 km/h (1 Bft) O-SO 112 0 min -2,2 C 0,0 km/h (0 Bft)
04.03.2016 15:50 4,1 C 6,7 C 63 % 999,9 hPa 0,0 mm 0,9 km/h (0 Bft) NO 45 0 min -2,3 C 0,0 km/h (0 Bft)
04.03.2016 15:55 4,2 C 6,4 C 64 % 999,9 hPa 0,0 mm 0,6 km/h (0 Bft) O-NO 67 0 min -2,0 C 0,0 km/h (0 Bft)
04.03.2016 16:00 4,3 C 6,2 C 64 % 999,9 hPa 0,0 mm 0,6 km/h (0 Bft) SW 225 0 min -1,9 C 0,0 km/h (0 Bft)
04.03.2016 16:05 4,2 C 6,1 C 64 % 999,9 hPa 0,0 mm 0,3 km/h (0 Bft) O-SO 112 0 min -2,0 C 0,0 km/h (0 Bft)
04.03.2016 16:10 3,9 C 5,9 C 64 % 999,8 hPa 0,0 mm 0,3 km/h (0 Bft) O-NO 67 0 min -2,3 C 0,0 km/h (0 Bft)
04.03.2016 16:15 3,7 C 5,6 C 65 % 999,8 hPa 0,0 mm 0,3 km/h (0 Bft) O-SO 112 0 min -2,3 C 0,0 km/h (0 Bft)
04.03.2016 16:20 3,6 C 5,5 C 65 % 999,8 hPa 0,0 mm 0,0 km/h (0 Bft) O-SO 112 0 min -2,4 C 0,0 km/h (0 Bft)
04.03.2016 16:25 3,5 C 5,4 C 65 % 999,8 hPa 0,0 mm 0,0 km/h (0 Bft) O 90 0 min -2,4 C 0,0 km/h (0 Bft)
04.03.2016 16:30 3,5 C 5,3 C 65 % 999,5 hPa 0,0 mm 0,0 km/h (0 Bft) O 90 0 min -2,4 C 0,0 km/h (0 Bft)
04.03.2016 16:35 3,4 C 5,1 C 65 % 999,5 hPa 0,0 mm 0,3 km/h (0 Bft) S 180 0 min -2,5 C 3,3 km/h (1 Bft)
04.03.2016 16:40 3,4 C 5,0 C 65 % 999,5 hPa 0,0 mm 0,3 km/h (0 Bft) W-NW 292 0 min -2,5 C 0,0 km/h (0 Bft)
04.03.2016 16:45 3,1 C 4,7 C 66 % 999,5 hPa 0,0 mm 0,6 km/h (0 Bft) SW 225 0 min -2,6 C 0,0 km/h (0 Bft)
04.03.2016 16:50 3,0 C 4,6 C 66 % 999,2 hPa 0,0 mm 0,6 km/h (0 Bft) O 90 0 min -2,7 C 0,0 km/h (0 Bft)
04.03.2016 16:55 3,0 C 4,5 C 67 % 999,2 hPa 0,0 mm 0,0 km/h (0 Bft) O 90 0 min -2,5 C 0,0 km/h (0 Bft)
04.03.2016 17:00 3,0 C 4,4 C 67 % 999,2 hPa 0,0 mm 0,0 km/h (0 Bft) O-SO 112 0 min -2,5 C 0,0 km/h (0 Bft)
04.03.2016 17:05 2,8 C 4,2 C 68 % 999,2 hPa 0,0 mm 0,0 km/h (0 Bft) O-SO 112 0 min -2,5 C 0,0 km/h (0 Bft)
04.03.2016 17:10 2,7 C 4,0 C 69 % 998,6 hPa 0,0 mm 0,0 km/h (0 Bft) S 180 0 min -2,4 C 0,0 km/h (0 Bft)
04.03.2016 17:15 2,6 C 3,7 C 69 % 998,6 hPa 0,0 mm 0,0 km/h (0 Bft) S 180 0 min -2,5 C 0,0 km/h (0 Bft)
04.03.2016 17:20 2,6 C 3,5 C 69 % 998,6 hPa 0,0 mm 0,0 km/h (0 Bft) O-SO 112 0 min -2,5 C 0,0 km/h (0 Bft)
04.03.2016 17:25 2,6 C 3,2 C 71 % 998,6 hPa 0,0 mm 0,0 km/h (0 Bft) S 180 0 min -2,1 C 0,0 km/h (0 Bft)
04.03.2016 17:30 2,5 C 2,9 C 71 % 998,4 hPa 0,0 mm 0,0 km/h (0 Bft) O-SO 112 0 min -2,2 C 0,0 km/h (0 Bft)
04.03.2016 17:35 2,4 C 2,6 C 71 % 998,4 hPa 0,0 mm 0,3 km/h (0 Bft) S 180 0 min -2,3 C 3,6 km/h (1 Bft)
04.03.2016 17:40 2,3 C 2,5 C 72 % 998,4 hPa 0,0 mm 0,3 km/h (0 Bft) S 180 0 min -2,2 C 0,0 km/h (0 Bft)
04.03.2016 17:45 2,2 C 2,2 C 72 % 998,4 hPa 0,0 mm 0,3 km/h (0 Bft) S-SO 157 0 min -2,3 C 0,0 km/h (0 Bft)
04.03.2016 17:50 2,2 C 2,2 C 72 % 998,1 hPa 0,0 mm 0,6 km/h (0 Bft) SO 135 0 min -2,3 C 0,0 km/h (0 Bft)
04.03.2016 17:55 1,9 C 1,9 C 73 % 998,1 hPa 0,0 mm 0,9 km/h (0 Bft) O-SO 112 0 min -2,4 C 0,0 km/h (0 Bft)
04.03.2016 17:57 1,9 C 1,9 C 73 % 998,1 hPa 0,0 mm 0,9 km/h (0 Bft) O-SO 112 0 min -2,4 C 0,0 km/h (0 Bft)
04.03.2016 18:00 1,7 C 1,6 C 73 % 998,1 hPa 0,0 mm 0,0 km/h (0 Bft) SO 135 0 min -2,6 C 0,0 km/h (0 Bft)
04.03.2016 18:05 1,6 C 1,4 C 73 % 998,1 hPa 0,0 mm 0,3 km/h (0 Bft) SW 225 0 min -2,7 C 8,3 km/h (2 Bft)
04.03.2016 18:10 1,5 C 1,3 C 74 % 998,1 hPa 0,0 mm 1,2 km/h (1 Bft) N 0 0 min -2,6 C 0,0 km/h (0 Bft)
04.03.2016 18:15 1,0 C 0,9 C 74 % 998,1 hPa 0,0 mm 1,2 km/h (1 Bft) N 0 0 min -3,1 C 0,0 km/h (0 Bft)
04.03.2016 18:20 0,9 C 0,7 C 74 % 998,1 hPa 0,0 mm 0,0 km/h (0 Bft) SO 135 0 min -3,2 C 0,0 km/h (0 Bft)
04.03.2016 18:25 1,3 C 0,9 C 75 % 998,1 hPa 0,0 mm 1,2 km/h (1 Bft) S 180 0 min -2,6 C 5,7 km/h (1 Bft)
04.03.2016 18:30 1,2 C 0,9 C 75 % 998,4 hPa 0,0 mm 3,3 km/h (1 Bft) W-SW 247 0 min -2,7 C 8,3 km/h (2 Bft)
04.03.2016 18:35 1,3 C 0,7 C 76 % 998,4 hPa 0,0 mm 7,2 km/h (2 Bft) SW 225 0 min -2,5 C 8,6 km/h (2 Bft)
04.03.2016 18:40 1,6 C 0,9 C 76 % 998,4 hPa 0,0 mm 7,7 km/h (2 Bft) W-SW 247 0 min -2,2 C 5,4 km/h (1 Bft)
04.03.2016 18:45 1,7 C 1,1 C 76 % 998,4 hPa 0,0 mm 7,7 km/h (2 Bft) W 270 0 min -2,1 C 8,3 km/h (2 Bft)
04.03.2016 18:50 1,8 C 1,2 C 77 % 998,9 hPa 0,0 mm 8,0 km/h (2 Bft) W-SW 247 0 min -1,8 C 14,3 km/h (3 Bft)
04.03.2016 18:55 2,0 C 1,4 C 76 % 998,9 hPa 0,0 mm 9,5 km/h (2 Bft) W 270 0 min -1,8 C 17,3 km/h (3 Bft)
04.03.2016 19:00 2,2 C 1,5 C 75 % 998,9 hPa 0,0 mm 10,1 km/h (2 Bft) W 270 0 min -1,8 C 15,2 km/h (3 Bft)
04.03.2016 19:05 2,1 C 1,6 C 74 % 998,9 hPa 0,0 mm 8,0 km/h (2 Bft) W-SW 247 0 min -2,0 C 6,6 km/h (2 Bft)
04.03.2016 19:10 2,0 C 1,7 C 73 % 999,3 hPa 0,0 mm 6,6 km/h (2 Bft) N 0 0 min -2,3 C 6,6 km/h (2 Bft)
04.03.2016 19:15 1,9 C 1,6 C 73 % 999,3 hPa 0,0 mm 6,3 km/h (2 Bft) N 0 0 min -2,4 C 6,3 km/h (2 Bft)
04.03.2016 19:20 1,8 C 1,5 C 73 % 999,3 hPa 0,0 mm 6,3 km/h (2 Bft) W-SW 247 0 min -2,5 C 5,4 km/h (1 Bft)
04.03.2016 19:25 1,8 C 1,5 C 72 % 999,3 hPa 0,0 mm 5,7 km/h (1 Bft) W-SW 247 0 min -2,7 C 5,4 km/h (1 Bft)
04.03.2016 19:30 1,9 C 1,6 C 72 % 999,0 hPa 0,0 mm 5,4 km/h (1 Bft) S 180 0 min -2,6 C 3,0 km/h (1 Bft)
04.03.2016 19:35 1,4 C 1,3 C 72 % 999,0 hPa 0,0 mm 3,9 km/h (1 Bft) SO 135 0 min -3,1 C 0,0 km/h (0 Bft)
04.03.2016 19:40 1,2 C 1,0 C 73 % 999,0 hPa 0,0 mm 1,2 km/h (1 Bft) S-SW 202 0 min -3,1 C 3,0 km/h (1 Bft)
04.03.2016 19:45 0,9 C 0,7 C 74 % 999,0 hPa 0,0 mm 1,8 km/h (1 Bft) S-SW 202 0 min -3,2 C 3,0 km/h (1 Bft)
04.03.2016 19:50 1,0 C 0,7 C 75 % 998,8 hPa 0,0 mm 1,8 km/h (1 Bft) S-SO 157 0 min -2,9 C 0,0 km/h (0 Bft)
04.03.2016 19:55 0,9 C 0,6 C 75 % 998,8 hPa 0,0 mm 0,3 km/h (0 Bft) O 90 0 min -3,0 C 0,0 km/h (0 Bft)
04.03.2016 20:00 0,6 C 0,3 C 75 % 998,8 hPa 0,0 mm 0,0 km/h (0 Bft) NO 45 0 min -3,3 C 0,0 km/h (0 Bft)
04.03.2016 20:05 0,7 C 0,3 C 76 % 998,8 hPa 0,0 mm 0,0 km/h (0 Bft) O-SO 112 0 min -3,0 C 0,0 km/h (0 Bft)
04.03.2016 20:10 0,7 C 0,3 C 76 % 998,3 hPa 0,0 mm 0,0 km/h (0 Bft) N 0 0 min -3,0 C 0,0 km/h (0 Bft)
04.03.2016 20:15 0,6 C 0,2 C 77 % 998,3 hPa 0,0 mm 0,3 km/h (0 Bft) SO 135 0 min -3,0 C 3,6 km/h (1 Bft)
04.03.2016 20:20 0,3 C 0,0 C 78 % 998,3 hPa 0,0 mm 0,6 km/h (0 Bft) O-NO 67 0 min -3,1 C 0,0 km/h (0 Bft)
04.03.2016 20:25 0,1 C -0,3 C 78 % 998,3 hPa 0,0 mm 0,3 km/h (0 Bft) O-NO 67 0 min -3,3 C 0,0 km/h (0 Bft)
04.03.2016 20:30 0,0 C -0,4 C 78 % 998,5 hPa 0,0 mm 0,3 km/h (0 Bft) SO 135 0 min -3,4 C 0,0 km/h (0 Bft)
04.03.2016 20:35 -0,5 C -0,8 C 78 % 998,5 hPa 0,0 mm 0,0 km/h (0 Bft) SO 135 0 min -3,9 C 0,0 km/h (0 Bft)
04.03.2016 20:40 -0,3 C -0,8 C 79 % 998,5 hPa 0,0 mm 0,0 km/h (0 Bft) O-SO 112 0 min -3,5 C 0,0 km/h (0 Bft)
04.03.2016 20:45 -0,7 C -1,1 C 79 % 998,5 hPa 0,0 mm 0,0 km/h (0 Bft) S-SO 157 0 min -3,9 C 0,0 km/h (0 Bft)
04.03.2016 20:50 -0,5 C -1,0 C 80 % 998,2 hPa 0,0 mm 0,0 km/h (0 Bft) S-SO 157 0 min -3,5 C 0,0 km/h (0 Bft)
04.03.2016 20:55 -0,3 C -0,9 C 82 % 998,2 hPa 0,0 mm 0,3 km/h (0 Bft) S-SO 157 0 min -3,0 C 0,0 km/h (0 Bft)
04.03.2016 20:58 -0,3 C -0,9 C 82 % 998,2 hPa 0,0 mm 0,3 km/h (0 Bft) S-SO 157 0 min -3,0 C 0,0 km/h (0 Bft)
04.03.2016 21:00 -0,4 C -0,9 C 83 % 998,2 hPa 0,0 mm 0,9 km/h (0 Bft) S 180 0 min -2,9 C 5,4 km/h (1 Bft)
04.03.2016 21:05 -0,3 C -0,7 C 83 % 998,2 hPa 0,0 mm 2,4 km/h (1 Bft) SO 135 0 min -2,8 C 0,0 km/h (0 Bft)
04.03.2016 21:10 -0,7 C -1,0 C 83 % 997,8 hPa 0,0 mm 2,1 km/h (1 Bft) O-NO 67 0 min -3,2 C 0,0 km/h (0 Bft)
04.03.2016 21:15 -0,9 C -1,3 C 83 % 997,8 hPa 0,0 mm 0,6 km/h (0 Bft) S 180 0 min -3,4 C 5,1 km/h (1 Bft)
04.03.2016 21:20 -0,5 C -0,9 C 84 % 997,8 hPa 0,0 mm 2,1 km/h (1 Bft) S-SO 157 0 min -2,9 C 3,9 km/h (1 Bft)
04.03.2016 21:25 -0,4 C -0,7 C 84 % 997,8 hPa 0,0 mm 2,4 km/h (1 Bft) N-NW 337 0 min -2,8 C 0,0 km/h (0 Bft)
04.03.2016 21:30 -1,0 C -1,2 C 84 % 997,6 hPa 0,0 mm 0,9 km/h (0 Bft) W-SW 247 0 min -3,4 C 0,0 km/h (0 Bft)
04.03.2016 21:35 -0,5 C -0,9 C 84 % 997,6 hPa 0,0 mm 0,3 km/h (0 Bft) S 180 0 min -2,9 C 3,6 km/h (1 Bft)
04.03.2016 21:40 -0,2 C -0,5 C 80 % 997,6 hPa 0,0 mm 1,2 km/h (1 Bft) S 180 0 min -3,2 C 5,4 km/h (1 Bft)
04.03.2016 21:45 -0,1 C -0,3 C 80 % 997,6 hPa 0,0 mm 3,6 km/h (1 Bft) O-NO 67 0 min -3,1 C 0,0 km/h (0 Bft)
04.03.2016 21:50 -0,4 C -0,6 C 84 % 997,5 hPa 0,0 mm 3,6 km/h (1 Bft) O-NO 67 0 min -2,8 C 4,5 km/h (1 Bft)
04.03.2016 21:55 -0,4 C -0,6 C 84 % 997,5 hPa 0,0 mm 1,2 km/h (1 Bft) O-NO 67 0 min -2,8 C 0,0 km/h (0 Bft)
04.03.2016 22:00 -0,6 C -0,8 C 84 % 997,5 hPa 0,0 mm 0,3 km/h (0 Bft) S-SO 157 0 min -3,0 C 0,0 km/h (0 Bft)
04.03.2016 22:05 -0,3 C -0,4 C 80 % 997,5 hPa 0,0 mm 0,9 km/h (0 Bft) N-NO 22 0 min -3,3 C 4,5 km/h (1 Bft)
04.03.2016 22:10 -0,5 C -0,7 C 84 % 997,7 hPa 0,0 mm 1,2 km/h (1 Bft) O-NO 67 0 min -2,9 C 0,0 km/h (0 Bft)
04.03.2016 22:15 -0,3 C -0,6 C 84 % 997,7 hPa 0,0 mm 0,6 km/h (0 Bft) S-SO 157 0 min -2,7 C 3,3 km/h (1 Bft)
04.03.2016 22:20 0,2 C -0,1 C 85 % 997,7 hPa 0,0 mm 1,8 km/h (1 Bft) S 180 0 min -2,0 C 7,2 km/h (2 Bft)
04.03.2016 22:25 -0,4 C -0,5 C 84 % 997,7 hPa 0,0 mm 2,4 km/h (1 Bft) O-SO 112 0 min -2,8 C 0,0 km/h (0 Bft)
04.03.2016 22:30 -0,3 C -0,5 C 85 % 997,6 hPa 0,0 mm 1,8 km/h (1 Bft) S 180 0 min -2,5 C 4,8 km/h (1 Bft)
04.03.2016 22:35 0,1 C -0,2 C 85 % 997,6 hPa 0,0 mm 1,8 km/h (1 Bft) S-SO 157 0 min -2,1 C 0,0 km/h (0 Bft)
04.03.2016 22:40 -0,2 C -0,3 C 85 % 997,6 hPa 0,0 mm 2,1 km/h (1 Bft) SO 135 0 min -2,4 C 0,0 km/h (0 Bft)
04.03.2016 22:45 -0,2 C -0,4 C 85 % 997,6 hPa 0,0 mm 1,8 km/h (1 Bft) N-NO 22 0 min -2,4 C 0,0 km/h (0 Bft)
04.03.2016 22:50 -0,4 C -0,6 C 84 % 997,6 hPa 0,0 mm 1,2 km/h (1 Bft) W-SW 247 0 min -2,8 C 0,0 km/h (0 Bft)
04.03.2016 22:55 -0,3 C -0,6 C 84 % 997,6 hPa 0,0 mm 0,0 km/h (0 Bft) O-SO 112 0 min -2,7 C 0,0 km/h (0 Bft)
04.03.2016 23:00 -0,3 C -0,6 C 85 % 997,6 hPa 0,0 mm 0,0 km/h (0 Bft) O-SO 112 0 min -2,5 C 0,0 km/h (0 Bft)
04.03.2016 23:05 -0,5 C -0,7 C 85 % 997,6 hPa 0,0 mm 0,3 km/h (0 Bft) O-SO 112 0 min -2,7 C 0,0 km/h (0 Bft)
04.03.2016 23:10 -0,6 C -0,8 C 85 % 997,5 hPa 0,0 mm 0,0 km/h (0 Bft) NW 315 0 min -2,8 C 0,0 km/h (0 Bft)
04.03.2016 23:15 -0,7 C -0,9 C 85 % 997,5 hPa 0,0 mm 0,0 km/h (0 Bft) W 270 0 min -2,9 C 0,0 km/h (0 Bft)
04.03.2016 23:20 -0,6 C -0,9 C 85 % 997,5 hPa 0,0 mm 0,6 km/h (0 Bft) W-SW 247 0 min -2,8 C 7,2 km/h (2 Bft)
04.03.2016 23:25 -0,1 C -0,4 C 86 % 997,5 hPa 0,0 mm 3,0 km/h (1 Bft) SW 225 0 min -2,2 C 6,9 km/h (2 Bft)
04.03.2016 23:30 0,1 C -0,3 C 86 % 997,2 hPa 0,0 mm 3,6 km/h (1 Bft) O-SO 112 0 min -2,0 C 0,0 km/h (0 Bft)
04.03.2016 23:35 -0,1 C -0,4 C 85 % 997,2 hPa 0,0 mm 0,9 km/h (0 Bft) W 270 0 min -2,3 C 0,0 km/h (0 Bft)
04.03.2016 23:40 0,1 C -0,2 C 85 % 997,2 hPa 0,0 mm 0,0 km/h (0 Bft) S 180 0 min -2,1 C 3,0 km/h (1 Bft)
04.03.2016 23:45 0,3 C -0,1 C 85 % 997,2 hPa 0,0 mm 1,8 km/h (1 Bft) SW 225 0 min -1,9 C 8,9 km/h (2 Bft)
04.03.2016 23:50 0,3 C 0,0 C 85 % 997,2 hPa 0,0 mm 3,6 km/h (1 Bft) O-NO 67 0 min -1,9 C 0,0 km/h (0 Bft)
04.03.2016 23:55 -0,4 C -0,5 C 84 % 997,2 hPa 0,0 mm 2,7 km/h (1 Bft) O-NO 67 0 min -2,8 C 0,0 km/h (0 Bft)
04.03.2016 23:59 -0,4 C -0,5 C 84 % 997,2 hPa 0,0 mm 2,7 km/h (1 Bft) O-NO 67 0 min -2,8 C 0,0 km/h (0 Bft)
_ Min-Zeit 07:50 07:10 15:20 23:59 - 23:40 - - - 07:40 23:59
Minimum _ -3,8 C -4,1 C 59 % 997,2 hPa - 0,0 km/h (0 Bft) - - - -5,9 C 0,0 km/h (0 Bft)
_ Max-Zeit 14:25 14:25 08:55 02:05 12:05 11:39 - - 13:35 12:10 11:26
Maximum _ 6,7 C 10,9 C 89 % 1006,9 hPa 0,7 mm 12,2 km/h
O-NO (2 Bft)
- - 5 min -0,5 C 25,9 km/h
N-NO (4 Bft)
Durchschnitt _ 0,6 C 1,9 C 79 % 1002,8 hPa #2,1 mm 3,7 km/h (1 Bft) O-NO - #2:49 h -2,8 C 4,6 km/h (1 Bft)